Regional Weather Roundup
Issued by NWS New Orleans/Baton Rouge, LA

Home | Current Version | Previous Version | Text Only | Print | Product List | Glossary On
Versions: 1 2 3 4 5 6 7 8 9 10 11 12 13 14 15 16 17 18 19 20 21 22 23 24 25 26 27 28 29 30 31 32 33 34 35 36 37 38 39 40 41 42 43 44 45 46 47 48 49 50
926
ASUS44 KLIX 070010
RWRLIX
NEW ORLEANS REGIONAL WEATHER ROUNDUP
NATIONAL WEATHER SERVICE NEW ORLEANS LA
600 PM CST SAT FEB 06 2016

NOTE: "FAIR" INDICATES FEW OR NO CLOUDS BELOW 12,000 FEET WITH NO
      SIGNIFICANT WEATHER AND/OR OBSTRUCTIONS TO VISIBILITY.
      SKY/WX - SKY CONDITION AND SIGNIFICANT WEATHER.
      TMP - AIR TEMPERATURE.     DP    - DEWPOINT TEMPERATURE.
      RH  - RELATIVE HUMIDITY.   PRES  - PRESSURE.
      HI  - HEAT INDEX.          WCI   - WIND CHILL INDEX.

*  THESE STATIONS ARE NOT NWS OR FAA STATIONS AND ARE NOT UNDER
   NWS QUALITY CONTROL.

LAZ038-040-048-061>063-065>067-069-070100-
SOUTHEAST LOUISIANA

CITY           SKY/WX    TMP DP  RH WIND       PRES   REMARKS
N.O. AUDUBON   NOT AVBL
N.O. INTL ARPT CLOUDY    52  21  29 W3        30.26S
6HR MIN TEMP:  52; 6HR MAX TEMP:  58;

N.O. LAKEFRONT CLOUDY    52  25  35 W3        30.27S
6HR MIN TEMP:  52; 6HR MAX TEMP:  56;

N.O. DOWNTOWN* CLOUDY    55  19  24 MISG      30.27R
6HR MIN TEMP:  54; 6HR MAX TEMP:  57;

RESERVE*         N/A     52  25  34 CALM      30.27R
6HR MIN TEMP:  52; 6HR MAX TEMP:  59;

SLIDELL        PTCLDY    51  29  42 CALM      30.26R
6HR MIN TEMP:  51; 6HR MAX TEMP:  59;

BATON ROUGE    CLOUDY    51  23  33 W5        30.27R
6HR MIN TEMP:  51; 6HR MAX TEMP:  59;

BOOTHVILLE     CLOUDY    50  35  56 N3        30.27R
6HR MIN TEMP:  50; 6HR MAX TEMP:  56;

BELLE CHASSE   CLOUDY    51  29  42 CALM      30.26S
6HR MIN TEMP:  50; 6HR MAX TEMP:  57;

BOGALUSA*        N/A     52  28  39 N5        30.27R
6HR MIN TEMP:  52; 6HR MAX TEMP:  61;

GALLIANO*      CLOUDY    53  33  45 E3        30.26S
6HR MIN TEMP:  53; 6HR MAX TEMP:  58;

NEW ROADS*       N/A     49  29  45 NW3       30.28S
6HR MIN TEMP:  49; 6HR MAX TEMP:  57;

GONZALES*      MOCLDY    52  27  37 CALM      30.26S
6HR MIN TEMP:  51; 6HR MAX TEMP:  57;

HAMMOND*       CLEAR     50  23  34 CALM      30.26S
HOUMA*         PTCLDY    52  37  58 CALM      30.26S
PORT FOURCHON* MOCLDY    52  32  46 NE8       30.27S

$$

MSZ070-080>082-070100-
SOUTHERN MISSISSIPPI

CITY           SKY/WX    TMP DP  RH WIND       PRES   REMARKS
MCCOMB         CLEAR     52  23  32 N3        30.26R
6HR MIN TEMP:  52; 6HR MAX TEMP:  58;

GULFPORT       CLOUDY    50  31  48 CALM      30.25R
6HR MIN TEMP:  50; 6HR MAX TEMP:  57;

BILOXI         MOCLDY    49  34  56 CALM      30.25R
6HR MIN TEMP:  49; 6HR MAX TEMP:  59;

PASCAGOULA     CLEAR     49  34  56 CALM      30.25R
6HR MIN TEMP:  48; 6HR MAX TEMP:  60;

STENNIS ARPT*  MOCLDY    48  27  43 CALM      30.26R

$$

COASTAL OBSERVATIONS
LAKE AND NEARSHORE STATIONS

STATION/POSITION TIME  TEMP    WIND        PRES    WAVE
                       AIR SEA DIR/SP/G            HT/PER
                 (UTC) (F)     (DEG/KT/KT) (MB)    (FT/S)
PASCAGOULA       2300   52     240/  6/  8 1023.4
WAVELAND YACHT   2300   51 54  230/  5/  7 1024.1
GRAND ISLE       2300   52 56   60/  6/  9 1024.8
NEW CANAL        2300   53 54  260/  4/  5 1023.8
SHELL BEACH      2300   52 56  320/  2/  2 1023.9

OFFSHORE STATIONS

STATION/POSITION TIME  TEMP    WIND        PRES    WAVE
                       AIR SEA DIR/SP/G            HT/PER
                 (UTC) (F)     (DEG/KT/KT) (MB)    (FT/S)

$$





USA.gov is the U.S. government's official web portal to all federal, state and local government web resources and services.